Location: NJAA Observatory
(40.6819°N, 74.8979°W)
Time: 19:24:22
(UTC-04:00)

Vanguard 1 - All Passes

Search period start: 17 August 2017 00:00
Search period end: 27 August 2017 00:00
Orbit: 653 x 3831 km, 34.2° (Epoch: 17 August)

Date Brightness Start Highest point End Pass type
(mag) Time Alt. Az. Time Alt. Az. Time Alt. Az.
17 Aug - 01:44:09 10° W 01:56:03 30° SSW 02:12:56 10° SSE visible
17 Aug - 19:05:20 10° SW 19:10:44 43° SSE 19:19:41 10° E daylight
17 Aug - 21:23:51 10° W 21:31:24 60° S 21:45:34 10° ESE visible
17 Aug - 23:43:35 10° W 23:53:47 45° SSW 00:11:16 10° SE visible
18 Aug - 02:06:26 10° W 02:17:19 23° SW 02:31:53 10° S visible
18 Aug - 17:09:29 10° S 17:12:29 16° SE 17:16:06 10° ESE daylight
18 Aug - 19:26:00 10° WSW 19:31:36 49° SSE 19:41:14 10° E daylight
18 Aug - 21:44:47 10° W 21:52:34 57° S 22:07:02 10° ESE visible
19 Aug - 00:04:52 10° W 00:15:05 38° SSW 00:31:49 10° SE visible
19 Aug - 02:29:41 10° WSW 02:38:36 17° SW 02:49:38 10° S visible
19 Aug - 17:29:15 10° SSW 17:33:04 23° SSE 17:38:08 10° E daylight
19 Aug - 19:46:46 10° WSW 19:52:34 54° S 20:02:45 10° E daylight
19 Aug - 22:05:46 10° W 22:13:45 52° S 22:28:22 10° ESE visible
20 Aug - 00:26:23 10° W 00:36:23 32° SSW 00:51:55 10° SSE visible
20 Aug - 02:56:12 10° SW 02:59:55 11° SW 03:03:56 10° SSW night (unlit)
20 Aug - 17:49:30 10° SW 17:53:46 30° SSE 17:59:46 10° E daylight
20 Aug - 20:07:36 10° WSW 20:13:35 55° S 20:24:14 10° ESE visible
20 Aug - 22:26:50 10° W 22:34:57 46° SSW 22:49:27 10° SE visible
21 Aug - 00:48:15 10° WSW 00:57:41 25° SSW 01:11:25 10° SSE visible
21 Aug - 18:10:01 10° SW 18:14:34 38° SSE 18:21:16 10° E daylight
21 Aug - 20:28:30 10° WSW 20:34:39 54° S 20:45:40 10° ESE visible
21 Aug - 22:47:59 10° W 22:56:10 39° SSW 23:10:15 10° SE visible
22 Aug - 01:10:46 10° WSW 01:19:01 19° SSW 01:30:01 10° S visible
22 Aug - 16:13:59 10° S 16:16:19 14° SSE 16:18:51 10° ESE daylight
22 Aug - 18:30:42 10° WSW 18:35:25 44° SSE 18:42:40 10° E daylight
22 Aug - 20:49:26 10° W 20:55:45 50° S 21:06:59 10° ESE visible
22 Aug - 23:09:19 10° W 23:17:25 32° SSW 23:30:40 10° SSE visible
23 Aug - 01:34:56 10° WSW 01:40:21 13° SW 01:46:45 10° SSW visible
23 Aug - 16:33:43 10° SSW 16:37:02 20° SSE 16:40:50 10° ESE daylight
23 Aug - 18:51:29 10° WSW 18:56:21 48° S 19:04:02 10° ESE daylight
23 Aug - 21:10:25 10° W 21:16:51 45° S 21:28:10 10° SE visible
23 Aug - 23:30:55 10° WSW 23:38:41 26° SSW 23:50:34 10° SSE visible
24 Aug - 16:54:00 10° SW 16:57:47 27° SSE 17:02:23 10° E daylight
24 Aug - 19:12:20 10° WSW 19:17:20 49° S 19:25:22 10° ESE daylight
24 Aug - 21:31:30 10° W 21:38:00 38° SSW 21:49:06 10° SE visible
24 Aug - 23:53:01 10° WSW 23:59:59 19° SSW 00:09:44 10° S visible
25 Aug - 17:14:33 10° SW 17:18:37 34° SSE 17:23:44 10° E daylight
25 Aug - 19:33:14 10° WSW 19:38:21 47° S 19:46:38 10° ESE daylight
25 Aug - 21:52:43 10° WSW 21:59:10 32° SSW 22:09:43 10° SE visible
26 Aug - 00:16:17 10° SW 00:21:19 14° SSW 00:27:33 10° S visible
26 Aug - 15:17:48 10° S 15:20:13 14° SSE 15:22:38 10° ESE daylight
26 Aug - 17:35:17 10° WSW 17:39:29 39° S 17:45:00 10° ESE daylight
26 Aug - 19:54:12 10° WSW 19:59:22 42° S 20:07:48 10° ESE visible
26 Aug - 22:14:09 10° WSW 22:20:22 25° SSW 22:29:54 10° SSE visible
